Oshkosh, WI

1:43 AM CDT on October 23, 2019 (GMT -0500)
Wittman Regional

Weather History for KOSH - September, 2019

Change the Weather History Date:

Saturday, September 21, 2019

  Actual Average Record
Temperature  
Mean Temperature 70 °F -  
Max Temperature 75 °F 65 °F 88 °F (2005)
Min Temperature 64 °F 47 °F 36 °F (1983)
Cooling Degree Days 4    
Growing Degree Days 20 (Base 50)    
Moisture  
Dew Point 68 °F    
Average Humidity 86    
Maximum Humidity 93    
Minimum Humidity 79    
Precipitation  
Precipitation 0.00 in - - ()
Sea Level Pressure  
Sea Level Pressure 29.93 in    
Wind  
Wind Speed 9 mph (SSW)    
Max Wind Speed 16 mph    
Max Gust Speed 26 mph    
Visibility 9 miles    
Events      
Averages and records for this station are not official NWS values.
T = Trace of Precipitation, MM = Missing Value Source: NWS Daily Summary

Daily Weather History Graph

Daily Weather History Graph

Search for Another Location

Airport or City:

Astronomy

Sep. 21, 2019 Rise Set
Actual Time 6:40 AM CDT 6:53 PM CDT
Civil Twilight 6:11 AM CDT 7:22 PM CDT
Nautical Twilight 5:37 AM CDT 7:56 PM CDT
Astronomical Twilight 5:02 AM CDT 8:31 PM CDT
Moon 11:17 PM CDT (9/21) 1:59 PM CDT (9/21)
Length of Visible Light 13h 11m
Length of Day
12h 13m
Waning Gibbous, 54% of the Moon is Illuminated
Sep 21
Waning Gibbous
Sep 21
Last Quarter
Sep 28
New
Oct 5
First Quarter
Oct 13
Full

Hourly Weather History & Observations

Time (CDT) Temp. Dew Point Humidity Pressure Visibility Wind Dir Wind Speed Gust Speed Precip Events Conditions
12:53 AM 64.0 °F 62.1 °F 93% 30.03 in 4.0 mi South 3.5 mph - N/A   Clear
1:53 AM 64.9 °F 63.0 °F 93% 30.02 in 3.0 mi South 4.6 mph - N/A   Clear
2:53 AM 66.9 °F 64.0 °F 90% 30.01 in 3.0 mi South 5.8 mph - N/A   Clear
3:53 AM 66.9 °F 64.0 °F 90% 30.00 in 4.0 mi South 5.8 mph - N/A   Clear
4:53 AM 66.0 °F 64.0 °F 93% 30.00 in 4.0 mi South 8.1 mph - N/A   Clear
5:53 AM 66.0 °F 64.0 °F 93% 29.99 in 5.0 mi South 4.6 mph - N/A   Clear
6:53 AM 68.0 °F 64.9 °F 90% 29.97 in 5.0 mi South 8.1 mph - N/A   Clear
7:53 AM 71.1 °F 66.9 °F 87% 29.96 in 9.0 mi South 12.7 mph 21.9 mph N/A   Clear
8:53 AM 72.0 °F 68.0 °F 87% 29.96 in 8.0 mi South 15.0 mph - N/A   Clear
9:27 AM 73.0 °F 68.0 °F 84% 29.99 in 10.0 mi SSW 13.8 mph 25.3 mph N/A   Mostly Cloudy
9:53 AM 73.0 °F 68.0 °F 84% 29.96 in 10.0 mi SSW 10.4 mph - N/A   Overcast
10:29 AM 73.9 °F 68.0 °F 82% 29.98 in 10.0 mi South 15.0 mph 24.2 mph N/A   Overcast
10:53 AM 73.9 °F 68.0 °F 82% 29.96 in 10.0 mi SSW 13.8 mph 24.2 mph N/A   Mostly Cloudy
11:53 AM 75.0 °F 68.0 °F 79% 29.94 in 10.0 mi South 10.4 mph 24.2 mph N/A   Overcast
12:53 PM 75.0 °F 68.0 °F 79% 29.92 in 10.0 mi SSW 12.7 mph - N/A   Overcast
1:53 PM 75.0 °F 68.0 °F 79% 29.91 in 10.0 mi SSW 16.1 mph 25.3 mph N/A   Overcast
2:53 PM 73.9 °F 69.1 °F 85% 29.90 in 10.0 mi SSW 13.8 mph 25.3 mph N/A   Overcast
3:53 PM 73.0 °F 69.1 °F 87% 29.88 in 10.0 mi SSW 12.7 mph 25.3 mph N/A   Overcast
4:53 PM 73.9 °F 69.1 °F 85% 29.88 in 10.0 mi SSW 16.1 mph 26.5 mph N/A   Mostly Cloudy
5:53 PM 73.0 °F 68.0 °F 84% 29.88 in 10.0 mi SSW 15.0 mph - N/A   Mostly Cloudy
6:01 PM 73.0 °F 68.0 °F 84% 29.91 in 10.0 mi SSW 11.5 mph 23.0 mph N/A   Overcast
6:40 PM 73.0 °F 68.0 °F 84% 29.91 in 10.0 mi SSW 11.5 mph 25.3 mph N/A   Overcast
6:53 PM 73.0 °F 69.1 °F 87% 29.88 in 10.0 mi SSW 12.7 mph 23.0 mph N/A   Overcast
7:07 PM 73.0 °F 69.1 °F 87% 29.91 in 10.0 mi SSW 11.5 mph 20.7 mph N/A   Overcast
7:18 PM 73.0 °F 69.1 °F 87% 29.91 in 10.0 mi SSW 11.5 mph - N/A   Overcast
7:28 PM 73.0 °F 69.1 °F 87% 29.91 in 10.0 mi SSW 10.4 mph - N/A   Overcast
7:53 PM 73.0 °F 69.1 °F 87% 29.88 in 10.0 mi SSW 13.8 mph - N/A   Mostly Cloudy
8:05 PM 73.0 °F 69.1 °F 87% 29.90 in 10.0 mi South 10.4 mph - N/A   Mostly Cloudy
8:13 PM 73.0 °F 69.1 °F 87% 29.90 in 10.0 mi South 12.7 mph - N/A   Scattered Clouds
8:39 PM 73.0 °F 69.1 °F 87% 29.90 in 10.0 mi SSW 12.7 mph - N/A   Mostly Cloudy
8:53 PM 73.0 °F 69.1 °F 87% 29.87 in 10.0 mi SSW 12.7 mph 23.0 mph N/A   Mostly Cloudy
9:49 PM 73.4 °F 69.8 °F 88% 29.90 in 10.0 mi SSW 11.5 mph - N/A   Overcast
9:53 PM 73.9 °F 70.0 °F 87% 29.86 in 10.0 mi SSW 10.4 mph - N/A   Overcast
10:53 PM 73.9 °F 69.1 °F 85% 29.86 in 10.0 mi SSW 10.4 mph 19.6 mph N/A   Overcast